AO-07 1 07530U 74089B 26072.94475469 -.00000020 00000-0 16708-3 0 9996 2 07530 101.9966 85.1804 0011946 313.8747 110.0971 12.53696440348586 UO-11 1 14781U 84021B 26072.90296983 .00001799 00000-0 18970-3 0 9993 2 14781 97.7952 39.6166 0008683 131.2522 228.9445 14.90522952242937 AO-27 1 22825U 93061C 26072.97246224 .00000116 00000-0 61220-4 0 9994 2 22825 98.6972 140.3856 0008745 27.2465 332.9175 14.30914612693389 FO-29 1 24278U 96046B 26072.86082040 .00000015 00000-0 52761-4 0 9994 2 24278 98.5375 294.7161 0349650 343.9487 15.0795 13.53268972460279 GO-32 1 25397U 98043D 26072.95472279 .00000111 00000-0 68054-4 0 9992 2 25397 99.0030 63.3318 0002163 112.8953 247.2453 14.24407471437773 ISS 1 25544U 98067A 26072.70791847 .00011780 00000-0 22432-3 0 9993 2 25544 51.6324 52.4887 0007884 189.2977 170.7866 15.48633802556952 NO-44 1 26931U 01043C 26072.88890026 .00000151 00000-0 87268-4 0 9999 2 26931 67.0499 130.7527 0007005 265.1240 94.9063 14.31914503276800 SO-50 1 27607U 02058C 26072.46172483 .00002103 00000-0 26508-3 0 9999 2 27607 64.5526 65.1060 0075301 280.0120 79.2494 14.82801116250261 CO-55 1 27844U 03031E 26072.98964531 .00000396 00000-0 19032-3 0 9990 2 27844 98.6777 82.7351 0010745 101.3524 258.8862 14.24270180178127 RS-22 1 27939U 03042A 26073.01031694 .00001341 00000-0 21568-3 0 9995 2 27939 98.3446 254.6914 0010702 205.4396 272.6227 14.73267664201531 CO-65 1 32785U 08021C 26072.95908269 .00008316 00000-0 53762-3 0 9995 2 32785 97.8204 52.5070 0009125 4.2377 355.8926 15.08438999970837 CO-66 1 32791U 08021J 26072.91267548 .00023812 00000-0 83927-3 0 9990 2 32791 97.7517 66.5191 0000809 340.2407 19.8801 15.29282651972719 RS-30 1 32953U 08025A 26072.97321530 .00000014 00000-0 27214-4 0 9999 2 32953 82.5006 54.6572 0019669 155.9374 204.2629 12.43176059807861 SRMSAT 1 37841U 11058D 26072.71752395 .00000480 00000-0 11671-3 0 9995 2 37841 19.9717 277.3263 0011738 233.3697 186.1200 14.11549464744318 ZACUBE-1 1 39417U 13066B 26072.93174720 .00004955 00000-0 39194-3 0 9992 2 39417 97.8156 34.7765 0043032 205.8393 154.0681 15.00371041666449 Delfi-N3xt 1 39428U 13066N 26072.76679084 .00008152 00000-0 73170-3 0 9993 2 39428 97.8337 353.2633 0076608 162.8871 197.4959 14.93735953660375 GOMX-1 1 39430U 13066Q 26072.91137096 .00001848 00000-0 28405-3 0 9991 2 39430 97.6571 279.3533 0130023 24.0269 336.6931 14.69115404655923 LO-74 1 39440U 13066AA 26072.31676754 .00006076 00000-0 57111-3 0 9999 2 39440 97.8807 20.9950 0058193 346.9336 13.0372 14.93003467662687 AO-73 1 39444U 13066AE 26072.35704843 .00007962 00000-0 51353-3 0 9995 2 39444 97.8186 41.9580 0037754 166.4701 193.7548 15.07980612665219 DTUSAT-2 1 40030U 14033W 26072.95651578 .00009279 00000-0 52004-3 0 9992 2 40030 98.0850 64.7507 0007591 185.8583 174.2559 15.13620769638277 LILACSAT-2 1 40908U 15049K 26072.91018903 .00020420 00000-0 38919-3 0 9999 2 40908 97.4806 106.2818 0005958 226.2245 133.8513 15.48195065580992 Horyu-4 1 41340U 16012D 26072.29741668 .00099424 00000-0 10160-2 0 9990 2 41340 30.9920 42.7677 0003826 189.7666 170.2913 15.63604101555670 Lapan A3 1 41603U 16040E 26072.94293834 .00004458 00000-0 14456-3 0 9998 2 41603 97.1484 72.2722 0010494 8.4471 351.6946 15.32427708540229 CAS-2T 1 41847U 16066G 26072.93240428 .00001459 00000-0 21207-3 0 9996 2 41847 98.3879 149.7356 0343514 58.6633 304.7701 14.44483567491042 TechnoSat 1 42829U 17042E 26072.95141656 .00003724 00000-0 27042-3 0 9997 2 42829 97.4145 234.3364 0019132 61.8226 298.4930 15.04320940472380 AO-91 1 43017U 17073E 26072.89985689 .00010885 00000-0 49319-3 0 9993 2 43017 97.4862 302.1078 0153966 297.5585 61.0075 15.10975112450993 S-Net D 1 43186U 18014G 26072.63566600 .00006745 00000-0 35754-3 0 9994 2 43186 97.5432 338.0551 0008413 2.1729 357.9538 15.15684200444280 S-Net B 1 43187U 18014H 26072.51325208 .00006686 00000-0 35466-3 0 9993 2 43187 97.5438 337.9168 0008991 358.3154 1.8046 15.15656098444269 S-Net A 1 43188U 18014J 26072.70101111 .00006929 00000-0 36707-3 0 9999 2 43188 97.5448 338.2950 0008802 357.3734 2.7451 15.15692455444298 S-Net C 1 43189U 18014K 26072.31855373 .00005768 00000-0 30650-3 0 9994 2 43189 97.5464 337.9750 0009942 350.2350 9.8687 15.15645424442788 Ten-Koh 1 43677U 18084G 26072.97078608 .00002978 00000-0 22902-3 0 9994 2 43677 98.0795 261.3374 0011899 80.3657 279.8911 15.02491022401862 PO-101 1 43678U 18084H 26072.92491367 .00003080 00000-0 25263-3 0 9999 2 43678 98.1042 265.1353 0012231 114.1112 246.1391 14.99986302401933 QO-100 1 43700U 18090A 26072.87406059 .00000144 00000-0 00000-0 0 9997 2 43700 0.0157 136.0875 0001091 213.5277 162.3454 1.00271758 26720 MinXSS-2 1 43758U 18099A 26072.93864554 .00037576 00000-0 91996-3 0 9990 2 43758 97.4622 146.8562 0007759 242.2321 117.8139 15.40643561399438 AO-95 1 43770U 18099N 26072.12206546 .00013648 00000-0 55688-3 0 9998 2 43770 97.4510 132.8256 0008084 333.7998 26.2829 15.24512623398570 SNUSat 2 1 43782U 18099AA 26072.94525148 .00010300 00000-0 47700-3 0 9991 2 43782 97.4196 127.8422 0008971 267.7127 92.3081 15.20260412398551 SnugLite 1 43784U 18099AC 26072.87268893 .00014219 00000-0 57281-3 0 9994 2 43784 97.4003 128.1856 0001380 248.3815 111.7276 15.24958917398786 ITASat 1 1 43786U 18099AE 26072.59851889 .00008519 00000-0 42443-3 0 9998 2 43786 97.4163 126.0477 0011826 332.3128 27.7475 15.17747187398401 EAGLET 1 1 43790U 18099AJ 26072.85570738 .00004692 00000-0 27552-3 0 9995 2 43790 97.4366 125.0428 0010071 321.6500 38.4013 15.12153453397927 ESEO 1 43792U 18099AL 26072.84696714 .00002198 00000-0 16346-3 0 9997 2 43792 97.4113 114.2777 0010511 302.7339 57.2874 15.03936137397477 JO-97 1 43803U 18099AX 26072.93635902 .00019916 00000-0 67721-3 0 9991 2 43803 97.4250 135.6129 0004944 238.2992 121.7767 15.30474324399049 Suomi 100 1 43804U 18099AY 26072.15795779 .00013071 00000-0 50867-3 0 9994 2 43804 97.4315 133.0160 0009004 255.9229 104.1009 15.26102019398766 ISAT 1 43879U 18111D 26072.78729131 .00072817 00000-0 12170-2 0 9996 2 43879 97.5900 1.7603 0002086 303.1943 56.9108 15.51668030396315 UWE-4 1 43880U 18111E 26072.83322755 .00035808 00000-0 88749-3 0 9990 2 43880 97.5847 357.2718 0006706 323.0116 37.0667 15.40289717396071 Sparrow 1 43881U 18111F 26072.85843925 .00080931 00000-0 11755-2 0 9999 2 43881 97.6104 6.2573 0003128 33.3978 326.7472 15.55522611396476 Prox-1 1 44339U 19036A 26072.25432317 .00014102 00000-0 14632-2 0 9992 2 44339 23.9962 33.8959 0006132 4.4081 355.6471 14.88160496359153 Taurus 1 1 44530U 19059C 26072.97994659 .00008827 00000-0 14492-2 0 9992 2 44530 98.6305 232.0294 0008542 243.9043 116.1283 14.70889914344649 TO-108 1 44881U 19093C 26072.92685993 .00000235 00000-0 32670-4 0 9997 2 44881 97.7604 147.4644 0014664 44.9603 315.2797 14.86349261337266 RS-44 1 44909U 19096E 26072.93798951 .00000026 00000-0 61803-4 0 9999 2 44909 82.5210 42.9905 0217747 7.4018 353.0210 12.79747557290169 SALSAT 1 46495U 20068K 26072.92904214 .00011089 00000-0 40496-3 0 9997 2 46495 97.8859 70.3060 0008074 278.4206 81.6117 15.28278458300805 CSS (TIANHE-1) 1 48274U 21035A 26072.74677078 .00031927 00000-0 37303-3 0 9990 2 48274 41.4663 183.4723 0006741 298.0497 61.9660 15.60891715278240 CUTE 1 49263U 21088D 26072.83033865 .00050842 00000-0 47447-3 0 9994 2 49263 97.4216 165.2652 0003060 295.3778 64.7166 15.67171675247528 TeikyoSat 4 1 49396U 21102B 26072.98519045 .00002340 00000-0 15118-3 0 9993 2 49396 97.3789 106.1393 0010528 259.3962 100.6082 15.09138697238369 Z-Sat 1 49399U 21102E 26073.00487346 .00004432 00000-0 22393-3 0 9995 2 49399 97.3461 111.2109 0015810 214.3997 145.6215 15.17468708239006 KOSEN 1 1 49402U 21102H 26072.54546480 .00009760 00000-0 38813-3 0 9996 2 49402 97.3332 116.5933 0014247 178.8515 181.2758 15.25393680239434 HO-113 1 50466U 21131B 26072.94715983 .00000330 00000-0 11576-3 0 9991 2 50466 98.4951 165.8774 0004705 38.6034 321.5491 14.41256137221393 SNUGLITE 2 1 52899U 22065F 26072.90876175 .00001382 00000-0 27199-3 0 9993 2 52899 98.2039 217.9969 0006681 330.5278 29.5547 14.64143055197055 UmKA 1 (RS40S) 1 57172U 23091G 26072.91807284 .00007819 00000-0 36872-3 0 9997 2 57172 97.5174 132.0073 0014646 92.9347 267.3563 15.19664768149535 CubeBel-2 (EU11S) 1 57175U 23091K 26072.90104842 .00014184 00000-0 53939-3 0 9995 2 57175 97.5170 135.3831 0011824 93.7277 266.5313 15.26823504149759 RS-38S 1 57189U 23091Z 26072.94122414 .00021034 00000-0 66217-3 0 9994 2 57189 97.5192 140.6998 0008524 59.4418 300.7664 15.32923240150083 SONATE-2 1 59112U 24043Q 26072.91602451 .00040449 00000-0 67775-3 0 9992 2 59112 97.5391 218.0496 0007927 189.0162 171.0949 15.51710011113082 GRBBeta 1 60237U 24128C 26072.29300574 .00005853 00000-0 40414-3 0 9999 2 60237 61.9899 192.5119 0051124 114.7393 245.9033 15.05843278 91820 Curium One 1 60242U 24128H 26072.85637017 .00010879 00000-0 64153-3 0 9992 2 60242 61.9790 183.0230 0050708 111.3889 249.2628 15.10950948 92046 ROBUSTA-3A 1 60243U 24128J 26072.83610745 .00011237 00000-0 67597-3 0 9994 2 60243 61.9863 185.0571 0051400 109.1430 251.5239 15.10174788 92016 CatSat 1 60246U 24125J 26072.82263353 .00055331 00000-0 99891-3 0 9997 2 60246 97.2207 284.7191 0027779 172.7358 187.4302 15.49122243 92586 HYPERVIEW-1G (RS66S) 1 61772U 24199AP 26072.93061104 .00078736 00000-0 10202-2 0 9997 2 61772 97.3083 309.1146 0006245 263.0524 97.0022 15.58596519119766 AO-123 1 61781U 24199AY 26072.92096680 .00010827 00000-0 32902-3 0 9992 2 61781 97.3155 302.4676 0012551 293.4505 66.5418 15.34154752119317 JINJUSat 1B 1 63210U 25052A 26072.97933622 .00020431 00000-0 69676-3 0 9991 2 63210 97.4117 329.7674 0005460 72.9636 287.2203 15.30371138 55522 NUSHSAT 1 1 63211U 25052B 26072.95784554 .00023769 00000-0 76726-3 0 9999 2 63211 97.4093 330.0353 0005395 75.7767 284.4073 15.32114128 55540 TEVEL2-4 1 63213U 25052D 26072.94244397 .00022661 00000-0 75480-3 0 9992 2 63213 97.4016 329.3616 0004809 87.4282 272.7510 15.31116100 55526 TEVEL2-5 1 63214U 25052E 26072.95373556 .00021913 00000-0 73283-3 0 9992 2 63214 97.4014 329.3446 0004732 87.9686 272.2097 15.30992820 55529 TEVEL2-6 1 63215U 25052F 26072.50614614 .00023745 00000-0 79517-3 0 9998 2 63215 97.4018 328.8842 0004892 88.9740 271.2062 15.30932507 55456 TEVEL2-1 1 63217U 25052H 26072.24391945 .00019218 00000-0 65313-3 0 9999 2 63217 97.3991 328.3512 0004870 99.0664 261.1128 15.30497635 55404 TEVEL2-3 1 63218U 25052J 26072.24141467 .00019121 00000-0 64913-3 0 9990 2 63218 97.3992 328.3604 0004931 98.7892 261.3908 15.30533668 55400 TEVEL2-2 1 63219U 25052K 26072.63685425 .00022870 00000-0 77595-3 0 9996 2 63219 97.3990 328.7439 0004895 98.1267 262.0529 15.30516952 55468 TEVEL2-9 1 63237U 25052AD 26072.95695402 .00019252 00000-0 68874-3 0 9997 2 63237 97.4060 328.6244 0008270 112.6709 247.5406 15.28803361 55466 TEVEL2-7 1 63238U 25052AE 26072.52363088 .00020183 00000-0 72702-3 0 9993 2 63238 97.4058 328.1448 0008355 113.8057 246.4060 15.28566839 55390 TEVEL2-8 1 63239U 25052AF 26072.20338630 .00017293 00000-0 62423-3 0 9991 2 63239 97.4057 327.8070 0008303 115.1166 245.0936 15.28530922 55342 HYDRA-W 1 63490U 25052BL 26072.67159496 .00241176 00000-0 24005-2 0 9994 2 63490 97.3926 334.0185 0009144 101.2498 258.9790 15.64892726 55816 HADES-ICM (SO-125) 1 63492U 25052BN 26072.68106932 .00170959 00000-0 22260-2 0 9995 2 63492 97.3932 333.2766 0009231 103.5078 256.7207 15.58119630 55769 Ten-Koh2 1 66174U 25241A 26072.95050348 .00014808 00000-0 63551-3 0 9993 2 66174 51.6355 52.5822 0005751 185.6974 174.3939 15.22900979 21602 SPIRONE 1 66657U 25274H 26072.83913440 .00002813 00000-0 27508-3 0 9998 2 66657 97.7439 3.5484 0011704 339.7725 20.3030 14.93102572 15990 K-HERO 1 66660U 25274L 26072.73733253 .00003374 00000-0 32499-3 0 9991 2 66660 97.7441 3.5366 0013589 342.9016 17.1745 14.93553381 15982 SNUGLITE-III DURI 1 66661U 25274M 26072.86293825 .00002624 00000-0 25335-3 0 9990 2 66661 97.7437 3.6759 0014265 343.0573 17.0168 14.93636767 16009 SilverSat 1 66909U 98067XV 26072.33066969 .00228210 00000-0 15396-2 0 9990 2 66909 51.6245 46.1985 0005407 105.6574 254.5022 15.73849745 15764 SAKHACUBE-CHOLBON 1 67290U 25313AU 26072.95362682 .00012459 00000-0 53182-3 0 9999 2 67290 97.4003 149.2834 0008723 338.3590 21.7277 15.23004408 11477 RS95S (QMR-KWT-2) 1 67291U 25313AV 26072.93993874 .00016865 00000-0 70527-3 0 9998 2 67291 97.4002 149.3012 0008341 336.5316 23.5540 15.23632523 11476 IO-86 1 40931U 25360.30710720 .00000000 00000-0 12800-3 0 00 2 40931 6.0006 332.5373 0012733 338.8432 8.1437 14.79075515 01